TimeAKDT,TemperatureF,Dew PointF,Humidity,Sea Level PressureIn,VisibilityMPH,Wind Direction,Wind SpeedMPH,Gust SpeedMPH,PrecipitationIn,Events,Conditions,WindDirDegrees,DateUTC
12:53 AM,36.0,27.0,70,29.45,10.0,SSW,9.2,-,0.00,,Overcast,210,2014-03-10 08:53:00
1:53 AM,34.0,27.0,75,29.46,10.0,Calm,Calm,-,N/A,,Overcast,0,2014-03-10 09:53:00
2:20 AM,35.1,28.0,76,29.47,3.0,SSW,13.8,-,0.00,Snow,Light Snow,210,2014-03-10 10:20:00
2:25 AM,34.0,28.0,79,29.47,1.8,SSW,16.1,-,0.00,Snow,Light Snow,210,2014-03-10 10:25:00
2:39 AM,33.1,30.0,89,29.47,1.0,SSW,16.1,-,0.00,Snow,Light Snow,210,2014-03-10 10:39:00
2:48 AM,33.8,30.2,87,29.47,1.2,SSW,12.7,-,0.00,Snow,Light Snow,210,2014-03-10 10:48:00
2:53 AM,33.1,30.9,92,29.47,1.8,SSW,12.7,-,0.00,Snow,Light Snow,200,2014-03-10 10:53:00
2:58 AM,33.1,30.0,89,29.47,3.0,SSW,10.4,-,0.00,Snow,Light Snow,200,2014-03-10 10:58:00
3:08 AM,34.0,30.0,85,29.46,5.0,SSW,9.2,-,0.00,Snow,Light Snow,200,2014-03-10 11:08:00
3:23 AM,34.0,30.0,85,29.46,1.8,SSW,15.0,-,0.00,Snow,Light Snow,200,2014-03-10 11:23:00
3:35 AM,34.0,30.0,85,29.46,3.0,South,11.5,-,0.00,Snow,Light Snow,190,2014-03-10 11:35:00
3:53 AM,35.1,28.9,78,29.46,7.0,South,15.0,21.9,0.00,Snow,Light Snow,190,2014-03-10 11:53:00
4:53 AM,36.0,30.9,82,29.45,10.0,Variable,4.6,-,0.00,,Overcast,0,2014-03-10 12:53:00
5:16 AM,36.0,30.9,82,29.45,7.0,South,5.8,17.3,0.00,Snow,Light Snow,180,2014-03-10 13:16:00
5:26 AM,36.0,30.9,82,29.44,9.0,Variable,6.9,-,0.00,Snow,Light Snow,0,2014-03-10 13:26:00
5:40 AM,36.0,30.9,82,29.43,9.0,South,10.4,21.9,0.00,,Overcast,180,2014-03-10 13:40:00
5:53 AM,34.0,30.9,89,29.43,10.0,Variable,6.9,21.9,0.00,Snow,Light Snow,0,2014-03-10 13:53:00
6:53 AM,34.0,30.9,89,29.41,8.0,Calm,Calm,-,0.00,Snow,Light Snow,0,2014-03-10 14:53:00
7:01 AM,34.0,30.9,89,29.41,5.0,Variable,3.5,-,0.00,Snow,Light Snow,0,2014-03-10 15:01:00
7:04 AM,34.0,30.9,89,29.41,2.5,ESE,4.6,-,0.00,Snow,Light Snow,120,2014-03-10 15:04:00
7:07 AM,34.0,30.9,89,29.41,1.8,Variable,3.5,-,0.01,Snow,Light Snow,0,2014-03-10 15:07:00
7:23 AM,33.1,30.9,92,29.40,1.2,ENE,3.5,-,0.02,Snow,Light Snow,60,2014-03-10 15:23:00
7:41 AM,33.1,30.9,92,29.39,2.0,NE,3.5,-,0.03,Snow,Light Snow,40,2014-03-10 15:41:00
7:53 AM,33.1,32.0,96,29.39,2.0,ESE,3.5,-,0.04,Snow,Light Snow,120,2014-03-10 15:53:00
8:14 AM,34.0,32.0,92,29.38,3.0,East,5.8,-,0.01,Snow,Light Snow,100,2014-03-10 16:14:00
8:23 AM,34.0,30.9,89,29.37,4.0,ESE,9.2,-,0.02,Snow,Light Snow,110,2014-03-10 16:23:00
8:53 AM,35.1,32.0,89,29.36,9.0,Variable,3.5,-,0.02,Rain,Light Rain,0,2014-03-10 16:53:00
9:11 AM,37.9,33.1,83,29.34,10.0,South,19.6,27.6,0.00,Rain,Light Rain,190,2014-03-10 17:11:00
9:26 AM,37.9,33.1,83,29.33,7.0,South,15.0,35.7,0.00,Rain,Light Rain,170,2014-03-10 17:26:00
9:53 AM,37.0,34.0,89,29.33,3.0,SSW,19.6,29.9,0.02,Rain,Light Rain,200,2014-03-10 17:53:00
10:53 AM,37.0,33.1,86,29.30,4.0,SSW,19.6,33.4,0.01,Snow,Light Snow,210,2014-03-10 18:53:00
11:39 AM,36.0,33.1,89,29.30,4.0,South,16.1,-,0.03,Rain,Rain,190,2014-03-10 19:39:00
11:53 AM,36.0,33.1,89,29.29,4.0,SSW,12.7,-,0.04,Rain,Rain,200,2014-03-10 19:53:00
12:53 PM,36.0,33.1,89,29.26,3.0,East,5.8,-,0.06,Rain,Light Rain,80,2014-03-10 20:53:00
12:59 PM,35.1,32.0,89,29.25,2.5,Variable,6.9,-,0.01,Snow,Light Snow,0,2014-03-10 20:59:00
1:04 PM,34.0,32.0,92,29.24,1.8,NE,5.8,-,0.02,Snow,Light Snow,50,2014-03-10 21:04:00
1:19 PM,34.0,32.0,92,29.23,1.5,Variable,5.8,-,0.03,Snow,Light Snow,0,2014-03-10 21:19:00
1:26 PM,34.0,32.0,92,29.23,3.0,North,6.9,-,0.03,Snow,Light Snow,350,2014-03-10 21:26:00
1:34 PM,34.0,32.0,92,29.22,2.0,NW,5.8,-,0.04,Snow,Light Snow,320,2014-03-10 21:34:00
1:49 PM,33.8,32.0,93,29.20,3.0,WNW,8.1,-,0.06,Rain,Rain,290,2014-03-10 21:49:00
1:53 PM,35.1,32.0,89,29.21,2.5,NNW,5.8,-,0.07,Rain,Rain,330,2014-03-10 21:53:00
2:08 PM,35.1,32.0,89,29.20,3.0,NW,8.1,-,0.02,Snow,Light Snow,310,2014-03-10 22:08:00
2:19 PM,35.1,32.0,89,29.19,2.5,NW,9.2,-,0.03,Snow,Light Snow,320,2014-03-10 22:19:00
2:33 PM,35.1,32.0,89,29.18,1.5,NW,10.4,-,0.07,Snow,Light Snow,310,2014-03-10 22:33:00
2:53 PM,34.0,32.0,92,29.16,1.2,WNW,6.9,-,0.15,Snow,Light Snow,300,2014-03-10 22:53:00
3:22 PM,34.0,32.0,92,29.13,1.0,NW,12.7,21.9,0.11,Snow,Light Snow,310,2014-03-10 23:22:00
3:33 PM,34.0,32.0,92,29.12,1.5,NW,15.0,-,0.15,Snow,Light Snow,320,2014-03-10 23:33:00
3:53 PM,34.0,32.0,92,29.11,1.5,NW,11.5,-,0.20,Snow,Light Snow,320,2014-03-10 23:53:00
4:13 PM,35.1,32.0,89,29.09,2.0,WNW,9.2,-,0.05,Snow,Light Snow,300,2014-03-11 00:13:00
4:25 PM,35.1,32.0,89,29.08,2.5,NNW,12.7,-,0.08,Snow,Light Snow,330,2014-03-11 00:25:00
4:53 PM,35.1,32.0,89,29.06,2.0,NW,11.5,-,0.14,Snow,Light Snow,310,2014-03-11 00:53:00
5:30 PM,36.0,32.0,86,29.02,3.0,WNW,8.1,-,0.06,Snow,Light Snow,300,2014-03-11 01:30:00
5:40 PM,36.0,32.0,86,29.01,2.5,NW,8.1,25.3,0.08,Snow,Light Snow,320,2014-03-11 01:40:00
5:53 PM,35.1,32.0,89,29.01,2.5,NW,11.5,-,0.10,Snow,Light Snow,310,2014-03-11 01:53:00
6:35 PM,35.1,32.0,89,28.96,3.0,NNW,15.0,20.7,0.07,Snow,Light Snow,330,2014-03-11 02:35:00
6:43 PM,36.0,32.0,86,28.97,2.5,WNW,6.9,20.7,0.08,Snow,Light Snow,290,2014-03-11 02:43:00
6:53 PM,35.1,32.0,89,28.96,2.5,Variable,3.5,-,0.10,Snow,Light Snow,0,2014-03-11 02:53:00
7:36 PM,35.1,32.0,89,28.95,4.0,NW,10.4,-,0.08,Snow,Light Snow,320,2014-03-11 03:36:00
7:53 PM,35.1,32.0,89,28.96,5.0,NW,8.1,18.4,0.09,Snow,Light Snow,320,2014-03-11 03:53:00
8:22 PM,34.0,32.0,92,29.00,2.0,SSW,4.6,-,0.05,Snow,Light Snow,210,2014-03-11 04:22:00
8:30 PM,34.0,32.0,92,29.00,1.8,South,6.9,-,0.06,Snow,Light Snow,190,2014-03-11 04:30:00
8:41 PM,33.1,30.9,92,29.01,1.0,South,4.6,-,0.08,Snow,Light Snow,190,2014-03-11 04:41:00
8:53 PM,33.1,32.0,96,29.02,1.0,Variable,3.5,-,0.10,Snow,Light Snow,0,2014-03-11 04:53:00
9:19 PM,33.1,32.0,96,29.03,1.8,Calm,Calm,-,0.03,Snow,Light Snow,0,2014-03-11 05:19:00
9:26 PM,33.1,32.0,96,29.03,2.0,Calm,Calm,-,0.04,Snow,Light Snow,0,2014-03-11 05:26:00
9:37 PM,33.1,30.9,92,29.04,2.0,NE,3.5,-,0.04,Snow,Light Snow,50,2014-03-11 05:37:00
9:53 PM,33.1,32.0,96,29.04,5.0,ENE,4.6,-,0.04,Snow,Light Snow,70,2014-03-11 05:53:00
10:01 PM,33.1,32.0,96,29.04,1.8,Calm,Calm,-,0.01,Snow,Light Snow,0,2014-03-11 06:01:00
10:10 PM,33.1,32.0,96,29.05,1.0,Calm,Calm,-,0.03,Snow,Light Snow,0,2014-03-11 06:10:00
10:30 PM,33.1,30.9,92,29.07,0.8,SE,4.6,-,0.08,Snow,Light Snow,140,2014-03-11 06:30:00
10:35 PM,33.1,30.9,92,29.07,1.2,South,3.5,-,0.08,Snow,Light Snow,180,2014-03-11 06:35:00
10:40 PM,33.1,32.0,96,29.07,3.0,Calm,Calm,-,0.08,Snow,Light Snow,0,2014-03-11 06:40:00
10:53 PM,33.1,32.0,96,29.07,7.0,North,5.8,-,0.08,Rain,Light Rain,10,2014-03-11 06:53:00
11:14 PM,33.1,32.0,96,29.05,6.0,NNE,3.5,-,0.01,Snow,Light Snow,20,2014-03-11 07:14:00
11:28 PM,34.0,32.0,92,29.05,5.0,Calm,Calm,-,0.01,Snow,Light Snow,0,2014-03-11 07:28:00
11:46 PM,33.1,30.9,92,29.05,3.0,NNW,4.6,-,0.02,Snow,Light Snow,330,2014-03-11 07:46:00
11:53 PM,33.1,30.9,92,29.05,2.5,Calm,Calm,-,0.03,Snow,Light Snow,0,2014-03-11 07:53:00